Location: ??????
(30.5519°N, 47.7720°E)
Time: 18:02:28
(UTC+00:00)

Cosmos 1689 Rocket - Pass Details

Date: 24 January 2021
Orbit: 353 x 367 km, 97.5° (Epoch: 01 March)

Event Time Altitude Azimuth Distance (km) Brightness Sun altitude
Exits shadow 15:41:27 - 353° (N) 1,632 5.2 -18.0°
Reaches altitude 10° 15:42:12 10° 347° (NNW) 1,329 4.8 -18.1°
Maximum altitude 15:44:42 29° 285° (WNW) 691 4.0 -18.6°
Drops below altitude 10° 15:47:10 10° 223° (SW) 1,317 5.5 -19.2°
Sets 15:49:13 0° 211° (SSW) 2,155 6.5 -19.6°
